SCP
0 0 0 0 0 0 0 0 0 0 0 0 0 0 0 0 0 0 0 0 0 0 0 0 0 0 0 0 0 0 0 0 0 0 0 0 0 0 0 0 0 0 0
0 0 0 0 0 0 0 0 0 0 0 0 0 0 0 0 0 0 0 0 0 0 0 0 0 0 0 0 0 0 0 0 0 0 0 0 0 0 0 0 0 0 0
0 0 0 0 0 0 0 0 0 0 0 0 0 0 0 0 0 0 0 0 0 0 0 0 0 0 0 0 0 0 0 0 0 0 0 0 0 0 0 0 0 0 0
0 0 0 0 0 0 0 0 0 0 0 0 0 0 0 0 0 0 0 0 0 0 0 0 0 0 0 0 0 0 0 0 0 0 0 0 0 0 0 0 0 0 0
0 0 0 0 0 0 0 0 0 0 0 0 0 0 0 0 0 0 0 0 0 0 0 0 0 0 0 0 0 0 0 0 0 0 0 0 0 0 0 0 0 0 0
0 0 0 0 0 0 0 0 0 0 0 0 0 0 0 0 0 0 0 0 0 0 0 0 0 0 0 0 0 0 0 0 0 0 0 0 0 0 0 0 0 0 0
0 0 0 0 0 0 0 0 0 0 0 0 0 0 0 0 0 0 0 0 0 0 0 0 0 0 0 0 0 0 0 0 0 0 0 0 0 0 0 0 0 0 0
0 0 0 0 0 0 0 0 0 0 0 0 0 0 0 0 0 0 0 0 0 0 0 0 0 0 0 0 0 0 0 0 0 0 0 0 0 0 0 0 0 0 0
0 0 0 0 0 0 0 0 0 0 0 0 0 0 0 0 0 0 0 0 0 0 0 0 0 0 0 0 0 0 0 0 0 0 0 0 0 0 0 0 0 0 0
0 0 0 0 0 0 0 0 0 0 0 0 0 0 0 0 0 0 0 0 0 0 0 0 0 0 0 0 0 0 0 0 0 0 0 0 0 0 0 0 0 0 0
0 0 0 0 0 0 0 0 0 0 0 0 0 0 0 0 0 0 0 0 0 0 0 0 0 0 0 0 0 0 0 0 0 0 0 0 0 0 0 0 0 0 0
0 0 0 0 0 0 0 0 0 0 0 0 0 0 0 0 0 0 0 0 0 0 0 0 0 0 0 0 0 0 0 0 0 0 0 0 0 0 0 0 0 0 0
0 0 0 0 0 0 0 0 0 0 0 0 0 0 0 0 0 0 0 0 0 0 0 0 0 0 0 0 0 0 0 0 0 0 0 0 0 0 0 0 0 0 0
0 0 0 0 0 0 0 0 0 0 0 0 0 0 0 0 0 0 0 0 0 0 0 0 0 0 0 0 0 0 0 0 0 0 0 0 0 0 0 0 0 0 0
0 0 0 0 0 0 0 0 0 0 0 0 0 0 0 0 0 0 0 0 0 0 0 0 0 0 0 0 0 0 0 0 0 0 0 0 0 0 0 0 0 0 0
0 0 0 0 0 0 0 0 0 0 0 0 0 0 0 0 0 0 0 0 0 0 0 0 0 0 0 0 0 0 0 0 0 0 0 0 0 0 0 0 0 0 0
0 0 0 0 0 0 0 0 0 0 0 0 0 0 0 0 0 0 0 0 0 0 0 0 0 0 0 0 0 0 0 0 0 0 0 0 0 0 0 0 0 0 0
0 -0 0 0 0 0 0 0 0 0 0 0 0 0 0 0 0 0 0 0 0 0 0 0 0 0 0 0 0 0 0 0 0 0 0 0 0 0 0 0 0 0 0
-0 -0 -0 -0 -0 0 0 0 0 0 0 0 0 0 0 0 0 0 0 0 0 0 -0 0 0 0 0 0 0 0 0 0 0 0 0 0 0 0 0 0 0 0 0
0 0 0 0 0 0 0 0 0 0 0 0 0 0 0 -0 0 0 -0 -0 -0 0 0 0 0 0 0 0 0 0 0 0 0 0 0 -0 0 0 0 0 0 0 0
0 0 0 0 0 0 0 0 0 0 0 -0 -0 -0 0 0 0 0 0 0 0 0 0 0 0 0 0 0 0 0 0 0 0 0 0 0 0 0 0 -0 -0 0 0
0 0 0 0 0 0 0 0 0 0 0 0 0 0 0 0 0 0 0 0 0 0 0 0 0 0 0 0 0 0 0 0 0 0 0 0 0 -0 -0 -0 -0 -0 0
0 0 0 0 0 0 0 0 0 0 0 0 0 0 0 0 0 0 0 0 0 0 0 0 0 0 0 0 0 0 0 0 0 0 0 0 0 0 0 0 -0 -0 0
0 0 0 0 0 0 0 0 0 0 0 0 0 0 0 0 0 0 0 0 0 0 0 0 0 0 0 0 0 0 0 0 0 0 0 0 0 0 0 0 0 0 0
0 0 0 0 0 0 0 0 0 0 0 0 0 0 0 0 0 0 0 0 0 0 0 0 0 0 0 0 0 0 0 0 0 0 0 -0 0 0 0 0 0 0 0
0 0 0 0 0 0 0 0 0 0 0 -0 0 0 0 0 0 0 0 0 0 0 0 0 0 0 0 0 0 0 0 0 0 0 0 0 0 0 0 0 0 0 0
Wind_Speed_500mb
65 58 56 59 53 48 40 42 39 41 37 35 31 31 36 36 31 29 28 31 30 26 28 31 32 31 30 31 31 29 28 26 26 24 23 23 23 24 25 26 28 29 30
60 66 60 59 57 48 45 44 47 39 37 32 33 33 36 37 35 31 32 33 33 32 31 35 38 41 42 44 46 50 49 45 44 40 35 34 31 30 31 31 33 34 36
57 67 64 57 57 54 49 47 43 37 38 30 29 32 36 38 36 34 35 34 35 38 39 39 42 45 44 44 51 54 51 47 49 48 49 50 52 41 36 37 39 40 42
61 67 66 63 55 59 51 54 41 38 42 30 27 31 35 37 44 40 40 45 45 43 44 47 47 47 49 54 55 46 57 54 49 51 53 53 56 51 54 58 52 45 47
61 65 66 62 58 61 59 54 53 48 43 34 30 29 33 36 43 46 50 52 50 50 53 54 53 53 53 54 58 60 56 57 59 54 53 56 59 57 58 59 61 54 50
60 60 63 63 59 60 58 57 53 54 43 35 35 35 36 38 39 45 49 50 52 54 55 55 59 58 57 57 58 61 66 59 62 62 58 58 60 61 63 64 62 62 62
52 60 60 61 58 61 62 59 59 42 53 48 34 39 43 50 50 52 54 54 59 56 52 53 55 58 60 60 59 61 64 67 63 65 64 64 64 65 66 68 65 63 63
38 52 58 61 59 62 62 59 57 59 53 50 46 39 30 35 52 58 61 65 57 59 60 58 58 58 60 61 62 61 63 66 72 73 72 74 71 69 66 61 62 69 70
48 43 61 60 57 60 60 58 55 55 57 53 53 44 22 27 38 41 43 45 58 59 59 57 57 57 61 61 61 64 68 68 72 78 84 89 91 91 91 90 78 75 74
59 50 49 50 54 51 59 61 55 47 47 54 57 64 63 63 40 37 41 42 48 54 56 61 61 61 61 60 61 66 68 70 72 77 82 84 88 90 92 94 89 70 74
64 58 56 45 45 43 39 46 50 49 45 47 53 62 66 65 67 76 49 36 37 45 48 51 49 49 51 54 49 54 60 64 67 70 74 77 80 81 83 82 71 66 68
72 63 59 51 46 45 43 40 42 46 46 54 56 50 49 40 34 27 28 33 34 41 42 44 44 42 42 43 46 50 53 55 58 61 64 66 68 71 74 75 75 69 70
56 66 57 56 58 57 46 49 53 56 47 55 56 46 23 20 14 20 23 26 27 35 30 32 32 35 39 43 48 53 55 58 60 62 65 69 71 73 74 71 73 74 77
40 44 50 52 47 47 45 47 42 34 18 14 8 6 4 9 12 13 11 11 14 16 21 20 29 29 34 40 48 53 58 62 65 66 67 70 74 76 79 82 82 83 81
40 41 30 25 25 32 24 24 19 21 17 22 26 25 23 19 21 18 19 22 23 14 15 22 33 38 43 44 48 54 56 60 61 66 69 72 74 74 75 77 74 70 68
62 52 43 46 38 38 40 35 36 39 35 37 33 31 31 34 31 32 33 30 26 23 16 31 38 43 50 51 58 58 63 65 66 69 72 77 80 83 85 85 86 86 82
65 54 58 61 52 44 50 48 47 44 43 44 43 41 41 37 35 34 33 32 34 35 37 43 45 50 55 61 63 65 68 72 76 74 77 81 83 87 90 91 91 89 76
76 75 71 71 67 64 60 58 57 52 49 47 47 41 43 40 39 40 40 40 41 42 44 52 57 60 63 65 70 75 78 82 82 86 81 87 90 92 96 89 72 72 73
83 79 77 77 75 70 65 61 58 56 53 51 48 45 43 40 42 45 48 50 52 53 53 59 68 68 69 68 75 82 87 93 92 98 96 98 101 83 61 68 75 94 112
84 79 78 76 74 69 64 60 57 54 51 49 49 52 53 57 58 57 56 55 58 58 60 62 67 71 71 71 82 91 103 101 109 106 111 86 65 67 59 88 106 103 102
79 74 72 72 70 67 62 55 53 52 52 51 51 50 49 50 54 59 61 62 59 58 60 64 69 70 67 75 79 80 93 97 104 93 73 78 83 119 124 111 99 90 85
72 67 68 66 65 62 53 51 50 49 48 47 50 53 54 54 53 55 56 54 56 60 64 64 63 62 66 76 84 88 86 91 105 98 82 121 101 107 107 107 88 88 91
64 66 63 59 59 54 47 45 44 49 52 51 51 53 58 62 63 67 68 64 59 58 50 50 55 57 76 80 78 86 78 81 91 111 103 97 105 106 107 107 90 93 102
60 59 57 52 47 46 45 46 46 47 49 49 53 59 63 66 68 71 71 69 65 63 52 52 62 76 73 67 67 68 73 87 93 98 81 84 104 108 100 114 119 108 100
53 53 48 44 45 46 42 44 47 52 54 54 59 64 67 69 67 65 69 65 64 57 53 69 68 64 59 55 54 65 75 77 93 104 103 68 97 113 123 136 124 103 98
47 44 42 43 42 39 43 50 55 55 59 61 61 62 62 66 70 68 67 68 66 62 73 68 62 57 56 60 59 59 66 79 90 103 99 87 115 97 86 136 123 126 129
Wind_Direction_500mb
210 213 211 208 199 201 204 211 218 220 208 208 220 219 211 214 208 218 226 249 237 233 236 246 264 278 283 284 285 281 276 280 289 291 291 285 281 282 283 284 285 283 282
212 214 214 210 202 197 210 210 214 213 213 213 215 222 221 221 218 220 225 246 242 240 234 232 239 251 269 276 278 287 287 287 293 294 302 293 283 282 282 281 280 281 280
212 211 217 218 212 200 212 214 210 207 225 221 219 222 224 227 227 230 229 233 253 247 246 242 241 245 248 253 259 258 260 271 288 291 298 305 304 292 287 283 278 276 275
214 214 217 222 215 208 213 214 215 210 222 223 222 230 231 229 234 232 239 244 244 254 258 253 254 253 254 255 255 259 251 257 261 276 285 299 296 294 297 301 297 278 272
217 219 221 223 219 218 218 218 222 228 229 226 228 229 238 238 242 247 250 253 257 263 262 266 265 263 262 259 259 258 257 258 262 263 272 286 286 283 285 286 292 286 268
212 215 224 226 222 218 226 220 222 227 228 230 237 236 240 243 247 253 256 260 267 267 267 267 269 270 267 265 263 260 258 259 259 257 269 273 275 277 276 278 277 282 288
203 221 225 228 225 226 229 224 223 225 236 232 233 247 252 254 256 256 260 268 271 275 273 273 273 275 274 271 267 264 259 257 258 260 264 269 270 271 270 270 265 273 270
211 222 229 230 230 230 233 234 228 231 236 241 242 248 264 279 270 267 268 266 269 269 273 272 271 269 266 264 266 263 260 258 256 256 257 260 262 263 263 265 269 274 272
223 227 233 232 234 234 232 238 236 238 238 246 252 248 260 257 274 271 271 266 263 264 263 265 260 262 263 263 264 265 262 259 258 259 259 262 263 265 266 265 265 266 267
219 227 239 239 241 242 239 240 245 244 247 251 255 252 255 260 267 275 267 259 258 254 257 257 257 261 264 263 263 264 265 265 264 262 263 264 266 268 270 271 270 272 270
221 213 241 237 237 241 243 238 247 250 250 253 256 266 267 260 266 271 272 261 258 252 258 260 267 270 269 269 272 275 278 280 278 277 275 274 274 274 274 275 277 277 276
223 224 235 237 242 250 246 242 239 246 255 257 255 252 255 256 251 278 293 291 295 287 277 283 283 286 291 292 291 290 289 289 289 288 287 285 284 284 284 282 281 281 279
210 207 219 224 222 226 231 239 239 243 254 249 263 252 256 274 290 283 281 295 297 293 300 300 302 302 297 295 292 290 290 288 287 286 287 287 285 283 280 280 279 278 277
180 188 191 209 215 212 218 217 220 218 187 190 157 160 23 29 27 1 355 335 323 319 320 316 310 311 312 310 307 304 302 299 298 297 295 293 292 289 287 286 285 284 285
133 136 145 139 152 124 117 109 106 85 68 83 76 78 77 68 57 51 33 23 19 351 322 325 328 318 311 309 305 302 303 303 303 299 297 295 292 290 288 287 286 287 288
108 113 108 110 98 105 99 100 93 101 100 90 80 70 64 56 47 40 34 30 20 7 331 324 324 319 316 316 311 312 308 307 303 301 300 298 297 295 294 294 293 291 288
101 101 108 107 107 105 98 98 96 88 81 78 73 65 64 57 48 39 28 17 6 355 341 331 324 322 319 316 315 311 309 309 306 304 302 298 297 296 296 295 294 291 290
103 103 100 98 97 92 88 85 85 85 79 72 66 58 52 40 34 25 16 8 0 351 340 331 330 326 323 320 316 313 313 311 307 306 303 301 300 301 301 299 296 293 294
96 95 94 91 89 86 83 80 76 71 65 58 52 45 39 29 24 16 7 1 355 350 343 332 327 324 321 319 312 312 313 311 309 309 309 308 309 308 302 297 296 297 297
97 93 90 89 85 80 75 71 66 62 56 49 42 34 26 20 14 6 360 355 349 343 336 330 325 322 319 316 315 316 314 313 313 312 313 317 306 303 298 299 301 301 300
91 91 90 86 81 75 68 63 57 52 45 39 34 27 21 14 7 1 354 349 343 338 334 329 325 322 323 321 322 317 313 314 313 319 312 311 300 310 311 312 307 302 299
91 89 84 81 77 70 61 54 48 43 39 33 28 21 13 6 0 355 349 347 342 338 335 329 326 321 318 320 317 318 315 318 314 317 308 313 316 314 312 312 305 298 296
88 84 80 74 70 64 54 49 43 38 32 26 20 14 8 0 353 350 347 343 337 333 333 325 317 314 311 313 315 313 313 309 307 312 318 312 319 314 316 313 305 301 297
83 78 75 71 67 62 51 43 37 32 26 20 13 9 2 355 350 347 343 338 331 329 332 312 307 311 314 315 311 309 310 308 313 319 317 304 323 314 309 307 308 302 300
83 76 72 67 61 54 45 39 32 27 20 16 9 2 357 352 347 343 339 333 330 330 318 318 321 321 321 322 324 319 323 319 317 320 322 313 311 308 313 310 310 305 300
80 74 68 59 52 45 38 32 27 19 15 10 3 356 351 346 343 342 338 333 331 332 326 330 334 337 337 337 338 333 326 320 319 315 318 313 314 309 308 308 307 309 313
Wind_Speed_850mb
65 58 56 59 53 48 40 42 39 41 37 35 31 31 36 36 31 29 28 31 30 26 28 31 32 31 30 31 31 29 28 26 26 24 23 23 23 24 25 26 28 29 30
60 66 60 59 57 48 45 44 47 39 37 32 33 33 36 37 35 31 32 33 33 32 31 35 38 41 42 44 46 50 49 45 44 40 35 34 31 30 31 31 33 34 36
57 67 64 57 57 54 49 47 43 37 38 30 29 32 36 38 36 34 35 34 35 38 39 39 42 45 44 44 51 54 51 47 49 48 49 50 52 41 36 37 39 40 42
61 67 66 63 55 59 51 54 41 38 42 30 27 31 35 37 44 40 40 45 45 43 44 47 47 47 49 54 55 46 57 54 49 51 53 53 56 51 54 58 52 45 47
61 65 66 62 58 61 59 54 53 48 43 34 30 29 33 36 43 46 50 52 50 50 53 54 53 53 53 54 58 60 56 57 59 54 53 56 59 57 58 59 61 54 50
60 60 63 63 59 60 58 57 53 54 43 35 35 35 36 38 39 45 49 50 52 54 55 55 59 58 57 57 58 61 66 59 62 62 58 58 60 61 63 64 62 62 62
52 60 60 61 58 61 62 59 59 42 53 48 34 39 43 50 50 52 54 54 59 56 52 53 55 58 60 60 59 61 64 67 63 65 64 64 64 65 66 68 65 63 63
38 52 58 61 59 62 62 59 57 59 53 50 46 39 30 35 52 58 61 65 57 59 60 58 58 58 60 61 62 61 63 66 72 73 72 74 71 69 66 61 62 69 70
48 43 61 60 57 60 60 58 55 55 57 53 53 44 22 27 38 41 43 45 58 59 59 57 57 57 61 61 61 64 68 68 72 78 84 89 91 91 91 90 78 75 74
59 50 49 50 54 51 59 61 55 47 47 54 57 64 63 63 40 37 41 42 48 54 56 61 61 61 61 60 61 66 68 70 72 77 82 84 88 90 92 94 89 70 74
64 58 56 45 45 43 39 46 50 49 45 47 53 62 66 65 67 76 49 36 37 45 48 51 49 49 51 54 49 54 60 64 67 70 74 77 80 81 83 82 71 66 68
72 63 59 51 46 45 43 40 42 46 46 54 56 50 49 40 34 27 28 33 34 41 42 44 44 42 42 43 46 50 53 55 58 61 64 66 68 71 74 75 75 69 70
56 66 57 56 58 57 46 49 53 56 47 55 56 46 23 20 14 20 23 26 27 35 30 32 32 35 39 43 48 53 55 58 60 62 65 69 71 73 74 71 73 74 77
40 44 50 52 47 47 45 47 42 34 18 14 8 6 4 9 12 13 11 11 14 16 21 20 29 29 34 40 48 53 58 62 65 66 67 70 74 76 79 82 82 83 81
40 41 30 25 25 32 24 24 19 21 17 22 26 25 23 19 21 18 19 22 23 14 15 22 33 38 43 44 48 54 56 60 61 66 69 72 74 74 75 77 74 70 68
62 52 43 46 38 38 40 35 36 39 35 37 33 31 31 34 31 32 33 30 26 23 16 31 38 43 50 51 58 58 63 65 66 69 72 77 80 83 85 85 86 86 82
65 54 58 61 52 44 50 48 47 44 43 44 43 41 41 37 35 34 33 32 34 35 37 43 45 50 55 61 63 65 68 72 76 74 77 81 83 87 90 91 91 89 76
76 75 71 71 67 64 60 58 57 52 49 47 47 41 43 40 39 40 40 40 41 42 44 52 57 60 63 65 70 75 78 82 82 86 81 87 90 92 96 89 72 72 73
83 79 77 77 75 70 65 61 58 56 53 51 48 45 43 40 42 45 48 50 52 53 53 59 68 68 69 68 75 82 87 93 92 98 96 98 101 83 61 68 75 94 112
84 79 78 76 74 69 64 60 57 54 51 49 49 52 53 57 58 57 56 55 58 58 60 62 67 71 71 71 82 91 103 101 109 106 111 86 65 67 59 88 106 103 102
79 74 72 72 70 67 62 55 53 52 52 51 51 50 49 50 54 59 61 62 59 58 60 64 69 70 67 75 79 80 93 97 104 93 73 78 83 119 124 111 99 90 85
72 67 68 66 65 62 53 51 50 49 48 47 50 53 54 54 53 55 56 54 56 60 64 64 63 62 66 76 84 88 86 91 105 98 82 121 101 107 107 107 88 88 91
64 66 63 59 59 54 47 45 44 49 52 51 51 53 58 62 63 67 68 64 59 58 50 50 55 57 76 80 78 86 78 81 91 111 103 97 105 106 107 107 90 93 102
60 59 57 52 47 46 45 46 46 47 49 49 53 59 63 66 68 71 71 69 65 63 52 52 62 76 73 67 67 68 73 87 93 98 81 84 104 108 100 114 119 108 100
53 53 48 44 45 46 42 44 47 52 54 54 59 64 67 69 67 65 69 65 64 57 53 69 68 64 59 55 54 65 75 77 93 104 103 68 97 113 123 136 124 103 98
47 44 42 43 42 39 43 50 55 55 59 61 61 62 62 66 70 68 67 68 66 62 73 68 62 57 56 60 59 59 66 79 90 103 99 87 115 97 86 136 123 126 129
Wind_Direction_850mb
210 213 211 208 199 201 204 211 218 220 208 208 220 219 211 214 208 218 226 249 237 233 236 246 264 278 283 284 285 281 276 280 289 291 291 285 281 282 283 284 285 283 282
212 214 214 210 202 197 210 210 214 213 213 213 215 222 221 221 218 220 225 246 242 240 234 232 239 251 269 276 278 287 287 287 293 294 302 293 283 282 282 281 280 281 280
212 211 217 218 212 200 212 214 210 207 225 221 219 222 224 227 227 230 229 233 253 247 246 242 241 245 248 253 259 258 260 271 288 291 298 305 304 292 287 283 278 276 275
214 214 217 222 215 208 213 214 215 210 222 223 222 230 231 229 234 232 239 244 244 254 258 253 254 253 254 255 255 259 251 257 261 276 285 299 296 294 297 301 297 278 272
217 219 221 223 219 218 218 218 222 228 229 226 228 229 238 238 242 247 250 253 257 263 262 266 265 263 262 259 259 258 257 258 262 263 272 286 286 283 285 286 292 286 268
212 215 224 226 222 218 226 220 222 227 228 230 237 236 240 243 247 253 256 260 267 267 267 267 269 270 267 265 263 260 258 259 259 257 269 273 275 277 276 278 277 282 288
203 221 225 228 225 226 229 224 223 225 236 232 233 247 252 254 256 256 260 268 271 275 273 273 273 275 274 271 267 264 259 257 258 260 264 269 270 271 270 270 265 273 270
211 222 229 230 230 230 233 234 228 231 236 241 242 248 264 279 270 267 268 266 269 269 273 272 271 269 266 264 266 263 260 258 256 256 257 260 262 263 263 265 269 274 272
223 227 233 232 234 234 232 238 236 238 238 246 252 248 260 257 274 271 271 266 263 264 263 265 260 262 263 263 264 265 262 259 258 259 259 262 263 265 266 265 265 266 267
219 227 239 239 241 242 239 240 245 244 247 251 255 252 255 260 267 275 267 259 258 254 257 257 257 261 264 263 263 264 265 265 264 262 263 264 266 268 270 271 270 272 270
221 213 241 237 237 241 243 238 247 250 250 253 256 266 267 260 266 271 272 261 258 252 258 260 267 270 269 269 272 275 278 280 278 277 275 274 274 274 274 275 277 277 276
223 224 235 237 242 250 246 242 239 246 255 257 255 252 255 256 251 278 293 291 295 287 277 283 283 286 291 292 291 290 289 289 289 288 287 285 284 284 284 282 281 281 279
210 207 219 224 222 226 231 239 239 243 254 249 263 252 256 274 290 283 281 295 297 293 300 300 302 302 297 295 292 290 290 288 287 286 287 287 285 283 280 280 279 278 277
180 188 191 209 215 212 218 217 220 218 187 190 157 160 23 29 27 1 355 335 323 319 320 316 310 311 312 310 307 304 302 299 298 297 295 293 292 289 287 286 285 284 285
133 136 145 139 152 124 117 109 106 85 68 83 76 78 77 68 57 51 33 23 19 351 322 325 328 318 311 309 305 302 303 303 303 299 297 295 292 290 288 287 286 287 288
108 113 108 110 98 105 99 100 93 101 100 90 80 70 64 56 47 40 34 30 20 7 331 324 324 319 316 316 311 312 308 307 303 301 300 298 297 295 294 294 293 291 288
101 101 108 107 107 105 98 98 96 88 81 78 73 65 64 57 48 39 28 17 6 355 341 331 324 322 319 316 315 311 309 309 306 304 302 298 297 296 296 295 294 291 290
103 103 100 98 97 92 88 85 85 85 79 72 66 58 52 40 34 25 16 8 0 351 340 331 330 326 323 320 316 313 313 311 307 306 303 301 300 301 301 299 296 293 294
96 95 94 91 89 86 83 80 76 71 65 58 52 45 39 29 24 16 7 1 355 350 343 332 327 324 321 319 312 312 313 311 309 309 309 308 309 308 302 297 296 297 297
97 93 90 89 85 80 75 71 66 62 56 49 42 34 26 20 14 6 360 355 349 343 336 330 325 322 319 316 315 316 314 313 313 312 313 317 306 303 298 299 301 301 300
91 91 90 86 81 75 68 63 57 52 45 39 34 27 21 14 7 1 354 349 343 338 334 329 325 322 323 321 322 317 313 314 313 319 312 311 300 310 311 312 307 302 299
91 89 84 81 77 70 61 54 48 43 39 33 28 21 13 6 0 355 349 347 342 338 335 329 326 321 318 320 317 318 315 318 314 317 308 313 316 314 312 312 305 298 296
88 84 80 74 70 64 54 49 43 38 32 26 20 14 8 0 353 350 347 343 337 333 333 325 317 314 311 313 315 313 313 309 307 312 318 312 319 314 316 313 305 301 297
83 78 75 71 67 62 51 43 37 32 26 20 13 9 2 355 350 347 343 338 331 329 332 312 307 311 314 315 311 309 310 308 313 319 317 304 323 314 309 307 308 302 300
83 76 72 67 61 54 45 39 32 27 20 16 9 2 357 352 347 343 339 333 330 330 318 318 321 321 321 322 324 319 323 319 317 320 322 313 311 308 313 310 310 305 300
80 74 68 59 52 45 38 32 27 19 15 10 3 356 351 346 343 342 338 333 331 332 326 330 334 337 337 337 338 333 326 320 319 315 318 313 314 309 308 308 307 309 313